weather.gov     
National Weather Service

Regional Weather Roundup
NWS Homepage
This page is being discontinued on March 12, 2014.
The same data is available at this site. Please update your bookmarks.
Thank you, and we apologize for the inconvenience.
Please send an email to SR-SRH.Webmaster@noaa.gov with any concerns.


Current Version
Previous Version:    01  02  03  04  05  06  07  08  09  10  11  12  13  14  15  16  17  18  19  20  21  22  23  24  25  26  27  28  29  30  
   31  32  33  34  35  36  37  38  39  40  41  42  43  44  45  46  47  48  49  50  51  52  53  54  55  56  57  58  59  60  
[Printable]
300
ASUS44 KFWD 191515
RWRTX
NORTH TEXAS HOURLY WEATHER ROUNDUP
NATIONAL WEATHER SERVICE FORT WORTH TX
900 AM CST FRI DEC 19 2014

NOTE: "FAIR" INDICATES FEW OR NO CLOUDS BELOW 12,000 FEET WITH NO
SIGNIFICANT WEATHER AND/OR OBSTRUCTIONS TO VISIBILITY.

TXZ118-119-191600-
DALLAS/FORT WORTH METROPLEX

CITY           SKY/WX    TMP DP  RH WIND       PRES   REMARKS
DFW AIRPORT    CLOUDY    46  44  93 N12       30.18R
DALLAS LOVE    CLOUDY    47  44  90 N8        30.20R FOG
FTW MEACHAM    CLOUDY    47  44  90 N9        30.18S FOG
DAL-EXECUTIVE  CLOUDY    48  44  86 N7        30.18R FOG
FTW-ALLIANCE   CLOUDY    45  44  97 N8        30.19S FOG
FTW-SPINKS     CLOUDY    46  45  93 N12       30.20R
ARLINGTON      CLOUDY    47  43  86 N13       30.18R
GRAND PRAIRIE  CLOUDY    46  46 100 N12       30.20R FOG
ADDISON        CLOUDY    46  43  87 N9        30.20R FOG
MESQUITE       CLOUDY    45  45 100 N6        30.20R FOG
LANCASTER      CLOUDY    46  44  93 N8        30.19S FOG
$$

TXZ091>094-102>105-117-120-121-131>134-191600-
NORTH CENTRAL TEXAS

CITY           SKY/WX    TMP DP  RH WIND       PRES   REMARKS
SHRMAN/DENISON CLOUDY    44  44 100 CALM      30.22R FOG
GAINESVILLE    CLOUDY    42  42  99 N7        30.23R FOG     WCI  38
BOWIE          CLOUDY    43  42  98 N7        30.20S WCI  39
BRIDGEPORT     CLOUDY    44  44 100 N6        30.23R
DECATUR        CLOUDY    43  43 100 N6        30.20R FOG     WCI  39
DENTON         CLOUDY    45  43  93 N9        30.20S
MCKINNEY       CLOUDY    46  44  93 N8        30.21R FOG
GREENVILLE     LGT RAIN  45  43  93 N5        30.21R
ROCKWALL       CLOUDY    45  45  99 N6        30.19R FOG
TERRELL        LGT RAIN  47  45  93 E10       30.17S FOG
WAXAHACHIE     CLOUDY    46  46 100 N12       30.18S FOG     WCI  40
CLEBURNE       CLOUDY    45  45 100 N15       30.19R FOG     WCI  38
GRANBURY       CLOUDY    46  44  91 N6        30.20R
$$

TXZ083>090-098>101-113>116-127>130-139>142-154-155-191600-
WESTERN NORTH TEXAS

CITY           SKY/WX    TMP DP  RH WIND       PRES   REMARKS
WICHITA FALLS  LGT RAIN  43  42  97 E7        30.21S FOG     WCI  39
WF-KICKAPOO    LGT RAIN  44  44 100 NE6       30.22S
VERNON         CLOUDY    42  38  86 NE6       30.22F WCI  39
ABILENE        CLOUDY    44  42  93 N6        30.18S
ABILENE-DYESS  CLOUDY    43  38  85 NE5       30.18R WCI  40
BRECKENRIDGE   CLOUDY    47  46  95 N7        30.19R
GRAHAM         CLOUDY    44  44 100 N6        30.18S FOG
MINERAL WELLS  CLOUDY    44  42  93 N9        30.18R WCI  39
STEPHENVILLE   CLOUDY    44  42  93 N8        30.20R WCI  39
COMANCHE       CLOUDY    44  44 100 N8        30.18R WCI  40
BROWNWOOD      SUNNY     46  43  87 NE6       30.17S
COLEMAN        CLOUDY    46  44  95 NE8       30.17S
BRADY          CLOUDY    45  45 100 N10       30.14F WCI  39
$$

TXZ143>147-156>162-174-175-191600-
CENTRAL TEXAS

CITY           SKY/WX    TMP DP  RH WIND       PRES   REMARKS
WACO           CLOUDY    47  46  97 N10       30.14R FOG
WACO-TSTC      CLOUDY    48  46  93 N7        30.15R FOG
WACO-MCGREGOR  CLOUDY    46  43  87 N9        30.16R
HILLSBORO      CLOUDY    47  45  91 N8        30.16R FOG
CORSICANA      LGT RAIN  48  45  89 E13       30.14F FOG
MEXIA          CLOUDY    46  46  98 NE9       30.12F
HEARNE         LGT RAIN  49  48  95 NE10      30.13F
CAMERON        CLOUDY    49  48  96 NE3       30.13S
TEMPLE         CLOUDY    48  43  81 N7        30.13R
KILLEEN        CLOUDY    47  47  99 N8        30.14R
KILLEEN-SKYLRK CLOUDY    48  43  81 N8        30.13R
FORT HOOD      CLOUDY    48  47  98 N8        30.13R FOG
GATESVILLE     CLOUDY    46  46 100 N6        30.18R
HAMILTON       CLOUDY    46  46 100 N8        30.17R FOG
LAMPASAS       CLOUDY    48  47  97 N6        30.14R FOG
$$

TXZ095>097-106>112-122>126-135>138-148>153-164>167-191600-
EAST TEXAS

CITY           SKY/WX    TMP DP  RH WIND       PRES   REMARKS
PARIS          CLOUDY    45  41  87 N9        30.22R WCI  40
SULPHUR SPRNGS DRIZZLE   46  46  99 E9        30.22R
MOUNT PLEASANT CLOUDY    44  44  97 NE5       30.24R
MINEOLA        LGT RAIN  46  46 100 CALM      30.22R
TYLER          RAIN      47  45  93 NE10      30.17F FOG
LONGVIEW       LGT RAIN  48  45  89 N8        30.22R FOG
MARSHALL       CLOUDY    48  46  92 N9        30.25R
ATHENS         LGT RAIN  45  45 100 E8        30.15F
PALESTINE      RAIN      48  48  97 NE9       30.19F
JACKSONVILLE   LGT RAIN  48  47  99 N8        30.20R
HENDERSON      RAIN      47  47 100 N6        30.22R
NACOGDOCHES    CLOUDY    48  46  93 N9        30.18R
LUFKIN         RAIN      52  48  86 N8        30.15R FOG
$$

SUPPLEMENTAL OBSERVATIONS (CENTRAL)

CITY           SKY/WX    TMP DP  RH WIND       PRES   REMARKS
LAKE TEXOMA      N/A     43  41  93 N7          N/A  WCI  39
CADDO GRASSLND   N/A     45  43  93 NE3         N/A
PAT MAYSE LAKE   N/A     45  43  93 N5          N/A
GREENVILLE       N/A     45  43  93 N7          N/A
CEDAR HILL       N/A     46  43  87 N6          N/A
ATHENS           N/A     46  43  87 E6          N/A
PALESTINE        N/A     48  45  87 NE8         N/A
LAKE LIMESTONE   N/A     48  45  87 NE12        N/A
MCGREGOR         N/A     48  46  93 NE8         N/A
TEMPLE           N/A     48  45  87 N6G15       N/A
$$

SUPPLEMENTAL OBSERVATIONS (WEST)

CITY           SKY/WX    TMP DP  RH WIND       PRES   REMARKS
MILLERS CREEK    N/A     43  39  87 NE6         N/A  WCI  39
POSSUM KINGDOM   N/A     45  41  87 N6          N/A
LBJ GRASSLAND    N/A     45  41  87 N6          N/A
GRANBURY         N/A     45  41  87 N8          N/A
COMANCHE         N/A     45  43  93 N8          N/A
HAMBY            N/A     43  39  87 N3          N/A
IVIE RESERVOIR   N/A     46  41  81 N8          N/A
COLORADO BEND    N/A     46  45  93 N6          N/A
$$

SUPPLEMENTAL OBSERVATIONS (EAST)

CITY           SKY/WX    TMP DP  RH WIND       PRES   REMARKS
CLARKSVILLE      N/A     43  41  93 E10         N/A  WCI  37
TEXARKANA        N/A     43  37  81 N7          N/A  WCI  39
LINDEN           N/A     45  41  87 NE1         N/A
CADDO LAKE       N/A     46  43  87 N5          N/A
GILMER           N/A     45  41  87 E6          N/A
HENDERSON        N/A     46  43  87 VRB10       N/A
LUFKIN           N/A     50  46  87 MISG        N/A
N SABINE NF      N/A     48  46  93 MISG        N/A
S SABINE NF      N/A     52  48  87 N2          N/A
$$

SUPPLEMENTAL OBSERVATIONS ARE A COLLECTION OF AUTOMATED INSTRUMENTS
THAT ARE MAINTAINED BY A VARIETY OF FEDERAL AND STATE AGENCIES.
CERTAIN ELEMENTS...SUCH AS HUMIDITY VALUES AND SUSTAINED WIND
SPEEDS...MAY BE APPROXIMATED.





U.S. Dept. of Commerce
NOAA National Weather Service
1325 East West Highway
Silver Spring, MD 20910
E-mail: w-nws.webmaster@noaa.gov
Page last modified: May 16, 2007
NATIONAL WEATHER SERVICE: for Safety, for Work, for Fun - FOR LIFE